User: anonymous   Login
Location: Granada
(37.1830°N, 3.6000°W)
Time: 00:00:07
(UTC+02:00)
Language:

Iridium 70 - Orbit

View from above orbital plane
View from above orbital plane
View from above satellite
View from above satellite

Ground track
Ground track

The orbit data is extracted from the following two-line orbital elements,

1 25342U 98032A   17291.30502052  .00000190  00000-0  60912-4 0  9997
2 25342  86.4007 172.8349 0002047  78.2831  56.3200 14.34217487 16744
Epoch (UTC): 18 October 2017 07:19:13
Eccentricity: 0.0002047
inclination: 86.4007°
perigee height: 776 km
apogee height: 779 km
right ascension of ascending node: 172.8349°
argument of perigee: 78.2831°
revolutions per day: 14.34217487
mean anomaly at epoch: 56.3200°
orbit number at epoch: 1674

The dashed part of the orbit path shows where the satellite is in the earth's shadow,  

DLR